Home > Weather > Sendai > Past weeks

Flag for Japan Weather for the Past 2 Weeks in Sendai, Japan

Now
28 °F

Passing clouds.


Feels Like: 28 °F
Forecast: 20 / 42 °F
Wind: 1 mph from North

Location: Sendai Airport

Current Time: Feb 7, 2016 at 10:31:46 PM

Latest Report: Feb 7, 2016 at 9:00 PM


Visibility: N/A

Pressure: 30.12 "Hg

Humidity: 64%

Dew point: 18 °F

Location of SendaiLocation

Historic Weather in Sendai — Graph

°F

Sendai Temperature Yesterday

Maximum temperature yesterday: 41 °F (at 4:00 PM)
Minimum temperature yesterday: 32 °F (at 7:00 AM)
Average temperature yesterday: 36 °F

High & Low Weather Summary for the Past Weeks

 TemperatureHumidityPressure
High50 °F (Jan 27, 1:00 PM)100% (Jan 25, 8:00 AM)30.39 "Hg (Jan 25, 8:00 AM)
Low21 °F (Jan 25, 7:00 AM)33% (Feb 7, 11:00 AM)29.50 "Hg (Jan 24, 1:00 PM)
Average36 °F66%30.07 "Hg
* Reported Jan 23 9:00 PM — Feb 7 9:00 PM, Sendai, Weather by CustomWeather, © 2016

Note: Actual official high and low records may vary slightly from our data, if they occured in-between our weather recording intervals... More about our weather records

Advertising

Sendai Weather History for the Previous 24 Hours

 ConditionsComfort  
Time TempWeatherWind HumidityBarometerVisibility
9:00 PM
Sun, Feb 7
28 °FPassing clouds.1 mph64%30.12 "HgN/A
8:00 PM28 °FPassing clouds.2 mph69%30.12 "HgN/A
7:00 PM32 °FPassing clouds.3 mph55%30.09 "HgN/A
6:00 PM32 °FPassing clouds.7 mph55%30.09 "HgN/A
5:00 PM34 °FScattered clouds.9 mph48%30.07 "HgN/A
4:00 PM37 °FPassing clouds.10 mph38%30.04 "HgN/A
3:00 PM37 °FPassing clouds.15 mph35%30.01 "HgN/A
2:00 PM37 °FPassing clouds.15 mph38%29.98 "HgN/A
1:00 PM37 °FScattered clouds.14 mph35%29.98 "HgN/A
12:00 PM39 °FScattered clouds.14 mph36%29.98 "HgN/A
11:00 AM37 °FScattered clouds.17 mph33%29.98 "HgN/A
10:00 AM36 °FPassing clouds.13 mph41%30.01 "HgN/A
9:00 AM36 °FPassing clouds.16 mph44%29.98 "HgN/A
8:00 AM32 °FPassing clouds.10 mph60%29.98 "HgN/A
7:00 AM30 °FPassing clouds.6 mph59%29.95 "HgN/A
6:00 AM27 °FPassing clouds.9 mph74%29.95 "HgN/A
Weather by CustomWeather, © 2016

See weather overviewHow to use our weather pages